Radiation Dose at Monitoring Post of Fukushima Daini Nuclear Power Station
Date,Time,MP-1(microSv/h),MP-2(microSv/h),MP-3(microSv/h),MP-4(microSv/h),MP-5(microSv/h),MP-6(microSv/h),MP-7(microSv/h),Wind Direction,Wind Velocity(m/s),Rain
2019/10/22,00:00,0.184,0.161,0.274,0.256,0.260,0.139,0.086,north,2.6,Yes
2019/10/22,00:10,0.183,0.162,0.273,0.257,0.261,0.139,0.085,north-northwest,2.5,Yes
2019/10/22,00:20,0.183,0.162,0.274,0.256,0.259,0.138,0.086,northwest,1.5,Yes
2019/10/22,00:30,0.183,0.162,0.272,0.257,0.262,0.139,0.086,northwest,2.9,Yes
2019/10/22,00:40,0.183,0.162,0.273,0.256,0.258,0.139,0.086,north-northwest,2.6,Yes
2019/10/22,00:50,0.182,0.162,0.272,0.256,0.261,0.138,0.086,north-northwest,3.2,Yes
2019/10/22,01:00,0.184,0.163,0.274,0.258,0.259,0.139,0.086,north-northwest,4.0,Yes
2019/10/22,01:10,0.183,0.162,0.273,0.257,0.263,0.140,0.086,northwest,3.5,Yes
2019/10/22,01:20,0.184,0.163,0.273,0.257,0.259,0.140,0.086,northwest,4.3,Yes
2019/10/22,01:30,0.184,0.163,0.274,0.255,0.260,0.139,0.086,northwest,5.0,Yes
2019/10/22,01:40,0.184,0.162,0.272,0.256,0.260,0.141,0.087,northwest,5.3,Yes
2019/10/22,01:50,0.183,0.163,0.275,0.256,0.259,0.140,0.088,northwest,6.2,Yes
2019/10/22,02:00,0.183,0.162,0.271,0.255,0.259,0.139,0.087,northwest,6.1,Yes
2019/10/22,02:10,0.184,0.162,0.272,0.256,0.260,0.140,0.087,northwest,5.9,Yes
2019/10/22,02:20,0.183,0.162,0.272,0.256,0.260,0.139,0.088,northwest,6.8,Yes
2019/10/22,02:30,0.183,0.162,0.271,0.254,0.258,0.139,0.087,north-northwest,6.7,Yes
2019/10/22,02:40,0.183,0.163,0.272,0.253,0.260,0.140,0.088,north-northwest,6.9,Yes
2019/10/22,02:50,0.185,0.161,0.270,0.253,0.257,0.140,0.088,north-northwest,6.6,Yes
2019/10/22,03:00,0.183,0.163,0.270,0.252,0.259,0.139,0.087,north-northwest,6.8,Yes
2019/10/22,03:10,0.181,0.162,0.269,0.252,0.258,0.139,0.088,north-northwest,6.9,Yes
2019/10/22,03:20,0.182,0.162,0.270,0.252,0.259,0.139,0.087,north-northwest,6.5,Yes
2019/10/22,03:30,0.182,0.162,0.269,0.251,0.258,0.140,0.088,north-northwest,6.1,Yes
2019/10/22,03:40,0.184,0.161,0.269,0.253,0.258,0.141,0.088,north-northwest,6.3,Yes
2019/10/22,03:50,0.181,0.162,0.270,0.252,0.261,0.139,0.088,north-northwest,6.5,Yes
2019/10/22,04:00,0.183,0.161,0.269,0.253,0.259,0.140,0.089,north-northwest,6.5,Yes
2019/10/22,04:10,0.182,0.163,0.269,0.252,0.260,0.139,0.088,north-northwest,5.9,Yes
2019/10/22,04:20,0.182,0.163,0.267,0.250,0.259,0.139,0.088,north-northwest,4.6,Yes
2019/10/22,04:30,0.183,0.164,0.268,0.251,0.261,0.139,0.089,north-northwest,4.4,Yes
2019/10/22,04:40,0.182,0.163,0.269,0.251,0.258,0.138,0.089,north,4.5,Yes
2019/10/22,04:50,0.183,0.163,0.266,0.252,0.260,0.139,0.089,north,5.2,Yes
2019/10/22,05:00,0.180,0.162,0.267,0.248,0.260,0.138,0.088,north,5.7,Yes
2019/10/22,05:10,0.180,0.162,0.266,0.249,0.259,0.139,0.088,north-northeast,4.2,Yes
2019/10/22,05:20,0.179,0.162,0.264,0.248,0.258,0.138,0.088,north-northeast,4.7,Yes
2019/10/22,05:30,0.179,0.162,0.265,0.247,0.257,0.138,0.088,north,4.6,Yes
2019/10/22,05:40,0.178,0.161,0.263,0.247,0.260,0.137,0.089,north,4.7,Yes
2019/10/22,05:50,0.177,0.162,0.265,0.246,0.258,0.138,0.088,north,4.1,Yes
2019/10/22,06:00,0.178,0.161,0.265,0.247,0.259,0.137,0.088,northwest,4.9,Yes
2019/10/22,06:10,0.177,0.162,0.262,0.246,0.258,0.138,0.089,north-northwest,5.3,Yes
2019/10/22,06:20,0.177,0.163,0.264,0.245,0.259,0.138,0.090,north,5.0,Yes
2019/10/22,06:30,0.178,0.164,0.264,0.247,0.259,0.140,0.092,northeast,4.0,Yes
2019/10/22,06:40,0.180,0.167,0.266,0.247,0.262,0.141,0.092,-,CALM,Yes
2019/10/22,06:50,0.179,0.165,0.266,0.249,0.262,0.141,0.093,east-northeast,8.7,Yes
2019/10/22,07:00,0.179,0.165,0.267,0.248,0.260,0.141,0.093,-,CALM,Yes
2019/10/22,07:10,0.179,0.165,0.266,0.249,0.262,0.140,0.093,east-northeast,10.7,Yes
2019/10/22,07:20,0.178,0.164,0.269,0.249,0.260,0.141,0.093,east-northeast,9.5,Yes
2019/10/22,07:30,0.180,0.165,0.268,0.249,0.261,0.140,0.091,northeast,9.5,Yes
2019/10/22,07:40,0.179,0.164,0.266,0.250,0.260,0.139,0.090,northeast,10.3,Yes
2019/10/22,07:50,0.178,0.163,0.268,0.250,0.260,0.138,0.090,northeast,7.8,Yes
2019/10/22,08:00,0.178,0.163,0.266,0.249,0.260,0.137,0.088,north-northeast,8.5,Yes
2019/10/22,08:10,0.178,0.161,0.266,0.249,0.257,0.137,0.089,northeast,9.5,Yes
2019/10/22,08:20,0.178,0.162,0.266,0.249,0.259,0.136,0.088,northeast,10.1,Yes
2019/10/22,08:30,0.177,0.161,0.265,0.249,0.258,0.137,0.088,northeast,9.2,Yes
2019/10/22,08:40,0.178,0.160,0.266,0.248,0.259,0.136,0.087,northeast,9.5,Yes
2019/10/22,08:50,0.177,0.161,0.265,0.248,0.258,0.135,0.087,northeast,10.0,Yes
2019/10/22,09:00,0.177,0.160,0.266,0.250,0.259,0.135,0.087,northeast,10.7,No
2019/10/22,09:10,0.178,0.159,0.264,0.246,0.258,0.134,0.086,north-northeast,10.0,No
2019/10/22,09:20,0.177,0.161,0.263,0.248,0.257,0.134,0.085,north-northeast,8.4,Yes
2019/10/22,09:30,0.178,0.159,0.267,0.246,0.256,0.134,0.085,north-northeast,10.1,Yes
2019/10/22,09:40,0.178,0.160,0.265,0.247,0.255,0.135,0.085,north,8.1,Yes
2019/10/22,09:50,0.177,0.160,0.265,0.248,0.257,0.134,0.086,north,8.1,Yes
2019/10/22,10:00,0.177,0.160,0.264,0.247,0.256,0.134,0.084,north,7.7,Yes
2019/10/22,10:10,0.177,0.159,0.264,0.249,0.257,0.135,0.085,north-northwest,9.0,No
2019/10/22,10:20,0.178,0.158,0.266,0.247,0.256,0.135,0.085,north-northwest,9.6,No
2019/10/22,10:30,0.178,0.159,0.263,0.248,0.257,0.134,0.085,north-northwest,8.7,No
2019/10/22,10:40,0.178,0.158,0.265,0.246,0.257,0.133,0.085,north-northwest,9.0,Yes
2019/10/22,10:50,0.178,0.159,0.267,0.249,0.256,0.135,0.085,north-northwest,8.8,Yes
2019/10/22,11:00,0.178,0.161,0.267,0.250,0.259,0.136,0.085,north,8.2,Yes
2019/10/22,11:10,0.181,0.161,0.267,0.250,0.258,0.138,0.088,north,9.2,Yes
2019/10/22,11:20,0.180,0.163,0.268,0.251,0.261,0.137,0.088,north,9.0,Yes
2019/10/22,11:30,0.182,0.164,0.268,0.250,0.260,0.139,0.090,north-northwest,10.3,Yes
2019/10/22,11:40,0.182,0.163,0.269,0.251,0.261,0.139,0.090,north-northwest,8.8,Yes
2019/10/22,11:50,0.182,0.164,0.267,0.251,0.261,0.139,0.090,north-northwest,8.7,Yes
2019/10/22,12:00,0.182,0.165,0.267,0.249,0.259,0.140,0.091,north-northwest,8.1,Yes
2019/10/22,12:10,0.180,0.165,0.267,0.250,0.262,0.140,0.091,north-northwest,8.7,Yes
2019/10/22,12:20,0.181,0.165,0.267,0.250,0.261,0.141,0.091,north-northwest,9.2,Yes
2019/10/22,12:30,0.181,0.165,0.268,0.249,0.261,0.140,0.092,north-northwest,8.8,Yes
2019/10/22,12:40,0.181,0.166,0.266,0.249,0.261,0.141,0.093,north,11.1,Yes
2019/10/22,12:50,0.181,0.164,0.266,0.249,0.259,0.141,0.091,north,10.4,Yes
2019/10/22,13:00,0.178,0.164,0.267,0.249,0.262,0.140,0.092,north,11.5,Yes
2019/10/22,13:10,0.178,0.165,0.264,0.247,0.260,0.140,0.091,north-northeast,10.9,Yes
2019/10/22,13:20,0.178,0.163,0.267,0.247,0.261,0.140,0.092,north-northeast,10.4,Yes
2019/10/22,13:30,0.178,0.163,0.264,0.248,0.259,0.140,0.091,north-northeast,11.4,Yes
2019/10/22,13:40,0.178,0.164,0.264,0.246,0.261,0.140,0.091,north-northeast,11.4,Yes
2019/10/22,13:50,0.177,0.163,0.265,0.247,0.259,0.138,0.091,north,13.1,Yes
2019/10/22,14:00,0.177,0.164,0.264,0.248,0.258,0.140,0.090,north,12.8,Yes
2019/10/22,14:10,0.177,0.163,0.266,0.248,0.260,0.137,0.090,north,11.2,Yes
2019/10/22,14:20,0.177,0.163,0.264,0.246,0.258,0.138,0.090,north,10.9,Yes
2019/10/22,14:30,0.178,0.162,0.264,0.246,0.259,0.137,0.089,northeast,10.6,Yes
2019/10/22,14:40,0.177,0.162,0.264,0.247,0.258,0.139,0.090,northeast,9.8,Yes
2019/10/22,14:50,0.176,0.163,0.262,0.244,0.260,0.139,0.092,north-northeast,10.7,Yes
2019/10/22,15:00,0.175,0.162,0.261,0.246,0.257,0.138,0.091,northeast,9.8,Yes
2019/10/22,15:10,0.175,0.162,0.261,0.245,0.259,0.139,0.091,northeast,8.6,Yes
2019/10/22,15:20,0.175,0.162,0.261,0.246,0.258,0.137,0.090,northeast,7.5,Yes
2019/10/22,15:30,0.174,0.161,0.261,0.247,0.257,0.136,0.089,north-northeast,12.0,Yes
2019/10/22,15:40,0.174,0.162,0.261,0.246,0.259,0.136,0.089,north-northeast,12.8,Yes
2019/10/22,15:50,0.175,0.160,0.262,0.247,0.256,0.135,0.088,north,11.7,Yes
2019/10/22,16:00,0.176,0.160,0.262,0.245,0.258,0.135,0.087,north,8.5,Yes
2019/10/22,16:10,0.176,0.161,0.262,0.247,0.256,0.134,0.087,north,8.7,Yes
2019/10/22,16:20,0.175,0.159,0.263,0.246,0.258,0.135,0.087,north,9.2,Yes
2019/10/22,16:30,0.176,0.159,0.262,0.246,0.258,0.134,0.087,north,10.3,Yes
2019/10/22,16:40,0.176,0.160,0.263,0.246,0.256,0.135,0.087,north,8.1,Yes
2019/10/22,16:50,0.176,0.159,0.263,0.245,0.258,0.135,0.086,north-northeast,13.4,Yes
2019/10/22,17:00,0.176,0.159,0.262,0.245,0.256,0.133,0.087,north-northeast,11.8,Yes
2019/10/22,17:10,0.176,0.161,0.263,0.246,0.257,0.135,0.087,north,10.7,Yes
2019/10/22,17:20,0.175,0.161,0.261,0.244,0.256,0.135,0.087,north,10.6,Yes
2019/10/22,17:30,0.176,0.160,0.262,0.247,0.256,0.134,0.087,north,11.2,Yes
2019/10/22,17:40,0.176,0.161,0.263,0.245,0.258,0.134,0.087,north,10.4,Yes
2019/10/22,17:50,0.175,0.159,0.261,0.246,0.255,0.134,0.087,north,12.0,Yes
2019/10/22,18:00,0.176,0.160,0.263,0.246,0.257,0.134,0.086,north,11.1,Yes
2019/10/22,18:10,0.175,0.159,0.262,0.245,0.255,0.134,0.086,north,11.8,Yes
2019/10/22,18:20,0.175,0.159,0.262,0.247,0.256,0.134,0.086,north,9.2,Yes
2019/10/22,18:30,0.176,0.161,0.262,0.245,0.257,0.133,0.086,north,12.6,Yes
2019/10/22,18:40,0.175,0.159,0.262,0.245,0.255,0.133,0.085,north,12.5,Yes
2019/10/22,18:50,0.175,0.160,0.262,0.246,0.257,0.132,0.086,north,12.6,Yes
2019/10/22,19:00,0.175,0.158,0.261,0.246,0.254,0.133,0.084,north,14.7,Yes
2019/10/22,19:10,0.175,0.158,0.262,0.247,0.258,0.134,0.084,north,11.7,Yes
2019/10/22,19:20,0.175,0.159,0.263,0.245,0.257,0.134,0.085,north,11.4,Yes
2019/10/22,19:30,0.175,0.158,0.261,0.248,0.255,0.134,0.086,north,11.7,Yes
2019/10/22,19:40,0.177,0.159,0.264,0.246,0.256,0.134,0.085,north,14.0,Yes
2019/10/22,19:50,0.176,0.159,0.263,0.246,0.256,0.134,0.085,north,12.3,Yes
2019/10/22,20:00,0.177,0.159,0.263,0.246,0.257,0.133,0.085,north-northwest,11.2,Yes
2019/10/22,20:10,0.177,0.159,0.264,0.246,0.256,0.134,0.085,north-northwest,10.0,Yes
2019/10/22,20:20,0.176,0.158,0.263,0.246,0.257,0.133,0.085,north-northwest,10.9,Yes
2019/10/22,20:30,0.178,0.159,0.263,0.246,0.256,0.133,0.085,north-northwest,12.6,Yes
2019/10/22,20:40,0.177,0.159,0.264,0.246,0.257,0.133,0.085,north-northwest,11.8,Yes
2019/10/22,20:50,0.178,0.158,0.264,0.246,0.256,0.133,0.085,north-northwest,11.8,Yes
2019/10/22,21:00,0.177,0.159,0.264,0.246,0.256,0.135,0.085,north-northwest,12.9,Yes
2019/10/22,21:10,0.178,0.159,0.263,0.247,0.256,0.133,0.084,north-northwest,10.1,Yes
2019/10/22,21:20,0.177,0.159,0.264,0.246,0.256,0.135,0.086,north-northwest,10.9,Yes
2019/10/22,21:30,0.177,0.158,0.263,0.246,0.257,0.134,0.086,north-northwest,11.1,Yes
2019/10/22,21:40,0.178,0.158,0.264,0.247,0.257,0.133,0.086,north-northwest,11.5,Yes
2019/10/22,21:50,0.177,0.159,0.263,0.245,0.257,0.133,0.085,north-northwest,11.8,Yes
2019/10/22,22:00,0.177,0.159,0.264,0.247,0.256,0.133,0.083,north-northwest,11.5,Yes
2019/10/22,22:10,0.178,0.159,0.264,0.247,0.255,0.134,0.085,north-northwest,11.4,Yes
2019/10/22,22:20,0.178,0.160,0.263,0.247,0.256,0.134,0.085,north-northwest,11.5,Yes
2019/10/22,22:30,0.178,0.158,0.265,0.245,0.255,0.132,0.084,north-northwest,10.9,Yes
2019/10/22,22:40,0.177,0.159,0.265,0.246,0.258,0.133,0.085,north-northwest,11.5,Yes
2019/10/22,22:50,0.178,0.158,0.263,0.245,0.254,0.133,0.084,north-northwest,11.5,Yes
2019/10/22,23:00,0.178,0.159,0.265,0.246,0.256,0.135,0.084,north-northwest,12.6,Yes
2019/10/22,23:10,0.177,0.157,0.264,0.246,0.256,0.132,0.083,north-northwest,11.8,Yes
2019/10/22,23:20,0.177,0.157,0.263,0.247,0.255,0.133,0.084,north-northwest,12.0,Yes
2019/10/22,23:30,0.177,0.158,0.265,0.246,0.255,0.133,0.084,northwest,11.2,Yes
2019/10/22,23:40,0.177,0.158,0.261,0.247,0.255,0.133,0.083,north-northwest,11.7,Yes
2019/10/22,23:50,0.178,0.157,0.265,0.246,0.255,0.132,0.084,north-northwest,12.2,Yes
